Find STARLINK-37477

NORAD ID: 68912 Constellation: starlink operational
LEOCIRCULARRETROGRADE

Live-Position

3D-Globus wird geladen...

Über STARLINK-37477

Beschreibung wird geladen...

Nächste Überflüge

Passes for default location (London). Set your location on the main map for personalized predictions.

Höhenverlauf

Loading altitude history...

Zweizeiliger Elementsatz

1 68912U 26097T 26125.50001156 -.02074678 12287-2 -49832-2 0 9990
2 68912 97.2870 320.4950 0001459 83.8874 150.4714 15.96646182 2069
Epoch: 5. Mai 2026 • Age: 8 hours